PROFILE

 METAR AND TAF INFORMATION
ADDS - METARS form results

(1211 UTC 26 March 2019)
http://aviationweather.gov/metar/data/
 
GMMN 261200Z 36010KT 320V020 9999 SCT016 SCT100 22/15 Q1009 NOSIG
TAF GMMN 261100Z 2612/2718 34016KT 9999 SCT016 SCT100 TEMPO 2620/2710 34018G30KT 6000 TSRA BKN016 FEW023CB 

 AIRPORT MAP

 RUNWAY INFORMATION
Runway 17L Runway length 12205 ft Runway width 148 ft
Runway elevation 633 ft Runway displaced threshold 0 ft Runway heading 164
Runway 35R Runway length 12205 ft Runway width 148 ft
Runway elevation 656 ft Runway displaced threshold 0 ft Runway heading 344
Runway 17R Runway length 12205 ft Runway width 148 ft
Runway elevation 636 ft Runway displaced threshold 0 ft Runway heading 164
Runway 35L Runway length 12205 ft Runway width 148 ft
Runway elevation 656 ft Runway displaced threshold 0 ft Runway heading 344

 AIRPORT FREQUENCIES
Type APP Name APP Frequency 121.3 MHZ
Type ATIS Name ATIS Frequency 126.4 MHZ
Type TWR Name TWR Frequency 118.5 MHZ

 AIRPORT NEAR NAVIGATION AIDS
Type VOR-DME Name Casablanca Frequency 114000 KHZ